<?xml version='1.0' encoding='UTF-8'?>
<gpx xmlns="http://www.topografix.com/GPX/1/1" creator="www.balnam.be" version="1.1" xmlns:xsi="http://www.w3.org/2001/XMLSchema-instance" xsi:schemaLocation="http://www.topografix.com/GPX/1/1 http://www.topografix.com/GPX/1/1/gpx.xsd">
<trk>
<name>hhoeq10</name>
<cmt>v</cmt>
<desc>Erquennes Chemin n°10 </desc>
<link href="https://chemins.be/erquennes/chemin/10"/><trkseg>
<trkpt lat="50.350494" lon="3.816305"><time>2026-05-02T23:07:51Z</time></trkpt>
<trkpt lat="50.350146" lon="3.816532"><time>2026-05-02T23:17:51Z</time></trkpt>
</trkseg></trk>
<trk>
<name>hhoeq10</name>
<cmt>q</cmt>
<desc>Erquennes Chemin n°10 </desc>
<link href="https://chemins.be/erquennes/chemin/10"/><trkseg>
<trkpt lat="50.350146" lon="3.816532"><time>2026-05-02T23:17:51Z</time></trkpt>
<trkpt lat="50.349689" lon="3.815371"><time>2026-05-02T23:27:51Z</time></trkpt>
</trkseg></trk>
<trk>
<name>hhoeq10</name>
<cmt>v</cmt>
<desc>Erquennes Chemin n°10 </desc>
<link href="https://chemins.be/erquennes/chemin/10"/><trkseg>
<trkpt lat="50.349689" lon="3.815371"><time>2026-05-02T23:27:51Z</time></trkpt>
<trkpt lat="50.344989" lon="3.811543"><time>2026-05-02T23:37:51Z</time></trkpt>
</trkseg></trk>
<trk>
<name>hhoeq10</name>
<cmt>q</cmt>
<desc>Erquennes Chemin n°10 </desc>
<link href="https://chemins.be/erquennes/chemin/10"/><trkseg>
<trkpt lat="50.344989" lon="3.811543"><time>2026-05-02T23:37:51Z</time></trkpt>
<trkpt lat="50.345074" lon="3.813625"><time>2026-05-02T23:47:51Z</time></trkpt>
<trkpt lat="50.344915" lon="3.815153"><time>2026-05-02T23:57:51Z</time></trkpt>
<trkpt lat="50.345079" lon="3.815934"><time>2026-05-03T00:07:51Z</time></trkpt>
<trkpt lat="50.345647" lon="3.818548"><time>2026-05-03T00:17:51Z</time></trkpt>
<trkpt lat="50.345901" lon="3.821212"><time>2026-05-03T00:27:51Z</time></trkpt>
<trkpt lat="50.345780" lon="3.821942"><time>2026-05-03T00:37:51Z</time></trkpt>
</trkseg>
</trk>
<trk>
<name>hhoeq11</name>
<cmt>v</cmt>
<desc>Erquennes Chemin n°11 </desc>
<link href="https://chemins.be/erquennes/chemin/11"/><trkseg>
<trkpt lat="50.358160" lon="3.809659"><time>2026-05-02T23:07:51Z</time></trkpt>
<trkpt lat="50.359645" lon="3.810357"><time>2026-05-02T23:17:51Z</time></trkpt>
</trkseg>
</trk>
<trk>
<name>hhoeq13</name>
<cmt>v</cmt>
<desc>Erquennes Chemin n°13 </desc>
<link href="https://chemins.be/erquennes/chemin/13"/><trkseg>
<trkpt lat="50.358269" lon="3.799574"><time>2026-05-02T23:07:51Z</time></trkpt>
<trkpt lat="50.357886" lon="3.799639"><time>2026-05-02T23:17:51Z</time></trkpt>
<trkpt lat="50.357745" lon="3.799739"><time>2026-05-02T23:27:51Z</time></trkpt>
<trkpt lat="50.356654" lon="3.800894"><time>2026-05-02T23:37:51Z</time></trkpt>
</trkseg></trk>
<trk>
<name>hhoeq13</name>
<cmt>d</cmt>
<desc>Erquennes Chemin n°13 </desc>
<link href="https://chemins.be/erquennes/chemin/13"/><trkseg>
<trkpt lat="50.356654" lon="3.800894"><time>2026-05-02T23:37:51Z</time></trkpt>
<trkpt lat="50.355928" lon="3.800840"><time>2026-05-02T23:47:51Z</time></trkpt>
</trkseg>
</trk>
<trk>
<name>hhoeq14</name>
<cmt>q</cmt>
<desc>Erquennes Chemin n°14 </desc>
<link href="https://chemins.be/erquennes/chemin/14"/><trkseg>
<trkpt lat="50.358087" lon="3.806224"><time>2026-05-02T23:07:51Z</time></trkpt>
<trkpt lat="50.357385" lon="3.809014"><time>2026-05-02T23:17:51Z</time></trkpt>
<trkpt lat="50.357289" lon="3.811453"><time>2026-05-02T23:27:51Z</time></trkpt>
</trkseg>
</trk>
<trk>
<name>hhoeq15</name>
<cmt>q</cmt>
<desc>Erquennes Sentier n°15 Rue d'Erquennes</desc>
<link href="https://chemins.be/erquennes/sentier/15"/><trkseg>
<trkpt lat="50.360350" lon="3.786568"><time>2026-05-02T23:07:51Z</time></trkpt>
<trkpt lat="50.360136" lon="3.786858"><time>2026-05-02T23:17:51Z</time></trkpt>
<trkpt lat="50.359967" lon="3.788116"><time>2026-05-02T23:27:51Z</time></trkpt>
</trkseg></trk>
<trk>
<name>hhoeq15</name>
<cmt>r</cmt>
<desc>Erquennes Sentier n°15 Rue d'Erquennes</desc>
<link href="https://chemins.be/erquennes/sentier/15"/><trkseg>
<trkpt lat="50.359967" lon="3.788116"><time>2026-05-02T23:27:51Z</time></trkpt>
<trkpt lat="50.359460" lon="3.787386"><time>2026-05-02T23:37:51Z</time></trkpt>
</trkseg></trk>
<trk>
<name>hhoeq15</name>
<cmt>v</cmt>
<desc>Erquennes Sentier n°15 Rue d'Erquennes</desc>
<link href="https://chemins.be/erquennes/sentier/15"/><trkseg>
<trkpt lat="50.359460" lon="3.787386"><time>2026-05-02T23:37:51Z</time></trkpt>
<trkpt lat="50.358885" lon="3.789006"><time>2026-05-02T23:47:51Z</time></trkpt>
<trkpt lat="50.358201" lon="3.790069"><time>2026-05-02T23:57:51Z</time></trkpt>
</trkseg></trk>
<trk>
<name>hhoeq15</name>
<cmt>d</cmt>
<desc>Erquennes Sentier n°15 Rue d'Erquennes</desc>
<link href="https://chemins.be/erquennes/sentier/15"/><trkseg>
<trkpt lat="50.358201" lon="3.790069"><time>2026-05-02T23:57:51Z</time></trkpt>
<trkpt lat="50.357718" lon="3.790189"><time>2026-05-03T00:07:51Z</time></trkpt>
<trkpt lat="50.356952" lon="3.789416"><time>2026-05-03T00:17:51Z</time></trkpt>
<trkpt lat="50.356250" lon="3.790841"><time>2026-05-03T00:27:51Z</time></trkpt>
<trkpt lat="50.355127" lon="3.790197"><time>2026-05-03T00:37:51Z</time></trkpt>
<trkpt lat="50.352601" lon="3.788170"><time>2026-05-03T00:47:51Z</time></trkpt>
</trkseg>
</trk>
<trk>
<name>hhoeq16</name>
<cmt>q</cmt>
<desc>Erquennes Sentier n°16 </desc>
<link href="https://chemins.be/erquennes/sentier/16"/><trkseg>
<trkpt lat="50.361274" lon="3.787022"><time>2026-05-02T23:07:51Z</time></trkpt>
<trkpt lat="50.361363" lon="3.787612"><time>2026-05-02T23:17:51Z</time></trkpt>
<trkpt lat="50.362129" lon="3.787301"><time>2026-05-02T23:27:51Z</time></trkpt>
<trkpt lat="50.362424" lon="3.787976"><time>2026-05-02T23:37:51Z</time></trkpt>
<trkpt lat="50.362253" lon="3.788363"><time>2026-05-02T23:47:51Z</time></trkpt>
<trkpt lat="50.362800" lon="3.790272"><time>2026-05-02T23:57:51Z</time></trkpt>
<trkpt lat="50.363389" lon="3.791313"><time>2026-05-03T00:07:51Z</time></trkpt>
<trkpt lat="50.364155" lon="3.793287"><time>2026-05-03T00:17:51Z</time></trkpt>
</trkseg>
</trk>
<trk>
<name>hhoeq17</name>
<cmt>q</cmt>
<desc>Erquennes Sentier n°17 </desc>
<link href="https://chemins.be/erquennes/sentier/17"/><trkseg>
<trkpt lat="50.356373" lon="3.783867"><time>2026-05-02T23:07:51Z</time></trkpt>
<trkpt lat="50.356127" lon="3.784339"><time>2026-05-02T23:17:51Z</time></trkpt>
<trkpt lat="50.356100" lon="3.785949"><time>2026-05-02T23:27:51Z</time></trkpt>
</trkseg></trk>
<trk>
<name>hhoeq17</name>
<cmt>d</cmt>
<desc>Erquennes Sentier n°17 </desc>
<link href="https://chemins.be/erquennes/sentier/17"/><trkseg>
<trkpt lat="50.356100" lon="3.785949"><time>2026-05-02T23:27:51Z</time></trkpt>
<trkpt lat="50.354867" lon="3.789961"><time>2026-05-02T23:37:51Z</time></trkpt>
<trkpt lat="50.355073" lon="3.790133"><time>2026-05-02T23:47:51Z</time></trkpt>
<trkpt lat="50.354785" lon="3.792515"><time>2026-05-02T23:57:51Z</time></trkpt>
<trkpt lat="50.354320" lon="3.794296"><time>2026-05-03T00:07:51Z</time></trkpt>
<trkpt lat="50.353375" lon="3.796806"><time>2026-05-03T00:17:51Z</time></trkpt>
<trkpt lat="50.351814" lon="3.800390"><time>2026-05-03T00:27:51Z</time></trkpt>
</trkseg>
</trk>
<trk>
<name>hhoeq18</name>
<cmt>q</cmt>
<desc>Erquennes Sentier n°18 </desc>
<link href="https://chemins.be/erquennes/sentier/18"/><trkseg>
<trkpt lat="50.354977" lon="3.790605"><time>2026-05-02T23:07:51Z</time></trkpt>
<trkpt lat="50.352642" lon="3.791742"><time>2026-05-02T23:17:51Z</time></trkpt>
</trkseg>
</trk>
<trk>
<name>hhoeq19</name>
<cmt>q</cmt>
<desc>Erquennes Sentier n°19 Rue Derrière l'Eglise</desc>
<link href="https://chemins.be/erquennes/sentier/19"/><trkseg>
<trkpt lat="50.357445" lon="3.785339"><time>2026-05-02T23:07:51Z</time></trkpt>
<trkpt lat="50.357873" lon="3.789305"><time>2026-05-02T23:17:51Z</time></trkpt>
<trkpt lat="50.357798" lon="3.790236"><time>2026-05-02T23:27:51Z</time></trkpt>
<trkpt lat="50.357977" lon="3.790521"><time>2026-05-02T23:37:51Z</time></trkpt>
</trkseg></trk>
<trk>
<name>hhoeq19</name>
<cmt>r</cmt>
<desc>Erquennes Sentier n°19 Rue Derrière l'Eglise</desc>
<link href="https://chemins.be/erquennes/sentier/19"/><trkseg>
<trkpt lat="50.357977" lon="3.790521"><time>2026-05-02T23:37:51Z</time></trkpt>
<trkpt lat="50.358541" lon="3.791416"><time>2026-05-02T23:47:51Z</time></trkpt>
<trkpt lat="50.358483" lon="3.792078"><time>2026-05-02T23:57:51Z</time></trkpt>
<trkpt lat="50.358644" lon="3.792174"><time>2026-05-03T00:07:51Z</time></trkpt>
<trkpt lat="50.359362" lon="3.793459"><time>2026-05-03T00:17:51Z</time></trkpt>
<trkpt lat="50.359526" lon="3.792789"><time>2026-05-03T00:27:51Z</time></trkpt>
<trkpt lat="50.360292" lon="3.794205"><time>2026-05-03T00:37:51Z</time></trkpt>
<trkpt lat="50.360295" lon="3.794210"><time>2026-05-03T00:47:51Z</time></trkpt>
<trkpt lat="50.361060" lon="3.795707"><time>2026-05-03T00:57:51Z</time></trkpt>
</trkseg></trk>
<trk>
<name>hhoeq19</name>
<cmt>q</cmt>
<desc>Erquennes Sentier n°19 Rue Derrière l'Eglise</desc>
<link href="https://chemins.be/erquennes/sentier/19"/><trkseg>
<trkpt lat="50.361060" lon="3.795707"><time>2026-05-03T00:57:51Z</time></trkpt>
<trkpt lat="50.362985" lon="3.800304"><time>2026-05-03T01:07:51Z</time></trkpt>
<trkpt lat="50.363218" lon="3.800733"><time>2026-05-03T01:17:51Z</time></trkpt>
<trkpt lat="50.363125" lon="3.803410"><time>2026-05-03T01:27:51Z</time></trkpt>
</trkseg>
</trk>
<trk>
<name>hhoeq20</name>
<cmt>v</cmt>
<desc>Erquennes Sentier n°20 </desc>
<link href="https://chemins.be/erquennes/sentier/20"/><trkseg>
<trkpt lat="50.359778" lon="3.794929"><time>2026-05-02T23:07:51Z</time></trkpt>
<trkpt lat="50.360134" lon="3.794430"><time>2026-05-02T23:17:51Z</time></trkpt>
<trkpt lat="50.360296" lon="3.794191"><time>2026-05-02T23:27:51Z</time></trkpt>
<trkpt lat="50.360606" lon="3.793748"><time>2026-05-02T23:37:51Z</time></trkpt>
<trkpt lat="50.361294" lon="3.792767"><time>2026-05-02T23:47:51Z</time></trkpt>
<trkpt lat="50.361862" lon="3.791801"><time>2026-05-02T23:57:51Z</time></trkpt>
<trkpt lat="50.361763" lon="3.791614"><time>2026-05-03T00:07:51Z</time></trkpt>
<trkpt lat="50.361921" lon="3.791253"><time>2026-05-03T00:17:51Z</time></trkpt>
</trkseg></trk>
<trk>
<name>hhoeq20</name>
<cmt>q</cmt>
<desc>Erquennes Sentier n°20 </desc>
<link href="https://chemins.be/erquennes/sentier/20"/><trkseg>
<trkpt lat="50.361921" lon="3.791253"><time>2026-05-03T00:17:51Z</time></trkpt>
<trkpt lat="50.362790" lon="3.790176"><time>2026-05-03T00:27:51Z</time></trkpt>
</trkseg>
</trk>
<trk>
<name>hhoeq21</name>
<cmt>v</cmt>
<desc>Erquennes Sentier n°21 </desc>
<link href="https://chemins.be/erquennes/sentier/21"/><trkseg>
<trkpt lat="50.361923" lon="3.791264"><time>2026-05-02T23:07:51Z</time></trkpt>
<trkpt lat="50.363156" lon="3.792526"><time>2026-05-02T23:17:51Z</time></trkpt>
</trkseg></trk>
<trk>
<name>hhoeq21</name>
<cmt>q</cmt>
<desc>Erquennes Sentier n°21 </desc>
<link href="https://chemins.be/erquennes/sentier/21"/><trkseg>
<trkpt lat="50.363156" lon="3.792526"><time>2026-05-02T23:17:51Z</time></trkpt>
<trkpt lat="50.364108" lon="3.793114"><time>2026-05-02T23:27:51Z</time></trkpt>
<trkpt lat="50.365291" lon="3.793845"><time>2026-05-02T23:37:51Z</time></trkpt>
<trkpt lat="50.367023" lon="3.794875"><time>2026-05-02T23:47:51Z</time></trkpt>
</trkseg>
</trk>
<trk>
<name>hhoeq22</name>
<cmt>q</cmt>
<desc>Erquennes Sentier n°22 </desc>
<link href="https://chemins.be/erquennes/sentier/22"/><trkseg>
<trkpt lat="50.360586" lon="3.788513"><time>2026-05-02T23:07:51Z</time></trkpt>
<trkpt lat="50.360695" lon="3.789307"><time>2026-05-02T23:17:51Z</time></trkpt>
</trkseg></trk>
<trk>
<name>hhoeq22</name>
<cmt>v</cmt>
<desc>Erquennes Sentier n°22 </desc>
<link href="https://chemins.be/erquennes/sentier/22"/><trkseg>
<trkpt lat="50.360695" lon="3.789307"><time>2026-05-02T23:17:51Z</time></trkpt>
<trkpt lat="50.361051" lon="3.789216"><time>2026-05-02T23:27:51Z</time></trkpt>
<trkpt lat="50.361140" lon="3.789505"><time>2026-05-02T23:37:51Z</time></trkpt>
</trkseg></trk>
<trk>
<name>hhoeq22</name>
<cmt>q</cmt>
<desc>Erquennes Sentier n°22 </desc>
<link href="https://chemins.be/erquennes/sentier/22"/><trkseg>
<trkpt lat="50.361140" lon="3.789505"><time>2026-05-02T23:37:51Z</time></trkpt>
<trkpt lat="50.361356" lon="3.790240"><time>2026-05-02T23:47:51Z</time></trkpt>
</trkseg></trk>
<trk>
<name>hhoeq22</name>
<cmt>r</cmt>
<desc>Erquennes Sentier n°22 </desc>
<link href="https://chemins.be/erquennes/sentier/22"/><trkseg>
<trkpt lat="50.361356" lon="3.790240"><time>2026-05-02T23:47:51Z</time></trkpt>
<trkpt lat="50.361236" lon="3.790428"><time>2026-05-02T23:57:51Z</time></trkpt>
</trkseg></trk>
<trk>
<name>hhoeq22</name>
<cmt>v</cmt>
<desc>Erquennes Sentier n°22 </desc>
<link href="https://chemins.be/erquennes/sentier/22"/><trkseg>
<trkpt lat="50.361236" lon="3.790428"><time>2026-05-02T23:57:51Z</time></trkpt>
<trkpt lat="50.361665" lon="3.790936"><time>2026-05-03T00:07:51Z</time></trkpt>
<trkpt lat="50.361924" lon="3.791258"><time>2026-05-03T00:17:51Z</time></trkpt>
</trkseg>
</trk>
<trk>
<name>hhoeq23</name>
<cmt>v</cmt>
<desc>Erquennes Sentier n°23 Rue Touquet</desc>
<link href="https://chemins.be/erquennes/sentier/23"/><trkseg>
<trkpt lat="50.361818" lon="3.789044"><time>2026-05-02T23:07:51Z</time></trkpt>
<trkpt lat="50.361133" lon="3.789521"><time>2026-05-02T23:17:51Z</time></trkpt>
<trkpt lat="50.361058" lon="3.789183"><time>2026-05-02T23:27:51Z</time></trkpt>
<trkpt lat="50.360487" lon="3.789360"><time>2026-05-02T23:37:51Z</time></trkpt>
<trkpt lat="50.360127" lon="3.789881"><time>2026-05-02T23:47:51Z</time></trkpt>
<trkpt lat="50.359770" lon="3.789869"><time>2026-05-02T23:57:51Z</time></trkpt>
<trkpt lat="50.359484" lon="3.790053"><time>2026-05-03T00:07:51Z</time></trkpt>
<trkpt lat="50.359125" lon="3.790541"><time>2026-05-03T00:17:51Z</time></trkpt>
<trkpt lat="50.359087" lon="3.790771"><time>2026-05-03T00:27:51Z</time></trkpt>
<trkpt lat="50.358549" lon="3.791406"><time>2026-05-03T00:37:51Z</time></trkpt>
</trkseg></trk>
<trk>
<name>hhoeq23</name>
<cmt>r</cmt>
<desc>Erquennes Sentier n°23 Rue Touquet</desc>
<link href="https://chemins.be/erquennes/sentier/23"/><trkseg>
<trkpt lat="50.358549" lon="3.791406"><time>2026-05-03T00:37:51Z</time></trkpt>
<trkpt lat="50.358468" lon="3.792084"><time>2026-05-03T00:47:51Z</time></trkpt>
<trkpt lat="50.357637" lon="3.792807"><time>2026-05-03T00:57:51Z</time></trkpt>
<trkpt lat="50.357466" lon="3.792861"><time>2026-05-03T01:07:51Z</time></trkpt>
</trkseg></trk>
<trk>
<name>hhoeq23</name>
<cmt>b</cmt>
<desc>Erquennes Sentier n°23 Rue Touquet</desc>
<link href="https://chemins.be/erquennes/sentier/23"/><trkseg>
<trkpt lat="50.357466" lon="3.792861"><time>2026-05-03T01:07:51Z</time></trkpt>
<trkpt lat="50.356727" lon="3.794277"><time>2026-05-03T01:17:51Z</time></trkpt>
</trkseg></trk>
<trk>
<name>hhoeq23</name>
<cmt>d</cmt>
<desc>Erquennes Sentier n°23 Rue Touquet</desc>
<link href="https://chemins.be/erquennes/sentier/23"/><trkseg>
<trkpt lat="50.356727" lon="3.794277"><time>2026-05-03T01:17:51Z</time></trkpt>
<trkpt lat="50.355198" lon="3.795421"><time>2026-05-03T01:27:51Z</time></trkpt>
</trkseg></trk>
<trk>
<name>hhoeq23</name>
<cmt>r</cmt>
<desc>Erquennes Sentier n°23 Rue Touquet</desc>
<link href="https://chemins.be/erquennes/sentier/23"/><trkseg>
<trkpt lat="50.355198" lon="3.795421"><time>2026-05-03T01:27:51Z</time></trkpt>
<trkpt lat="50.354924" lon="3.796100"><time>2026-05-03T01:37:51Z</time></trkpt>
</trkseg></trk>
<trk>
<name>hhoeq23</name>
<cmt>d</cmt>
<desc>Erquennes Sentier n°23 Rue Touquet</desc>
<link href="https://chemins.be/erquennes/sentier/23"/><trkseg>
<trkpt lat="50.354924" lon="3.796100"><time>2026-05-03T01:37:51Z</time></trkpt>
<trkpt lat="50.353377" lon="3.796865"><time>2026-05-03T01:47:51Z</time></trkpt>
</trkseg>
</trk>
<trk>
<name>hhoeq24</name>
<cmt>q</cmt>
<desc>Erquennes Sentier n°24 </desc>
<link href="https://chemins.be/erquennes/sentier/24"/><trkseg>
<trkpt lat="50.359966" lon="3.788124"><time>2026-05-02T23:07:51Z</time></trkpt>
<trkpt lat="50.359753" lon="3.789248"><time>2026-05-02T23:17:51Z</time></trkpt>
<trkpt lat="50.359775" lon="3.789720"><time>2026-05-02T23:27:51Z</time></trkpt>
</trkseg>
</trk>
<trk>
<name>hhoeq25</name>
<cmt>q</cmt>
<desc>Erquennes Sentier n°25 </desc>
<link href="https://chemins.be/erquennes/sentier/25"/><trkseg>
<trkpt lat="50.359742" lon="3.789736"><time>2026-05-02T23:07:51Z</time></trkpt>
<trkpt lat="50.358502" lon="3.789747"><time>2026-05-02T23:17:51Z</time></trkpt>
</trkseg>
</trk>
<trk>
<name>hhoeq26</name>
<cmt>q</cmt>
<desc>Erquennes Sentier n°26 </desc>
<link href="https://chemins.be/erquennes/sentier/26"/><trkseg>
<trkpt lat="50.359898" lon="3.791882"><time>2026-05-02T23:07:51Z</time></trkpt>
<trkpt lat="50.359128" lon="3.790519"><time>2026-05-02T23:17:51Z</time></trkpt>
</trkseg>
</trk>
<trk>
<name>hhoeq27</name>
<cmt>b</cmt>
<desc>Erquennes Sentier n°27 </desc>
<link href="https://chemins.be/erquennes/sentier/27"/><trkseg>
<trkpt lat="50.359392" lon="3.793598"><time>2026-05-02T23:07:51Z</time></trkpt>
<trkpt lat="50.358700" lon="3.794264"><time>2026-05-02T23:17:51Z</time></trkpt>
<trkpt lat="50.358242" lon="3.794371"><time>2026-05-02T23:27:51Z</time></trkpt>
</trkseg></trk>
<trk>
<name>hhoeq27</name>
<cmt>v</cmt>
<desc>Erquennes Sentier n°27 </desc>
<link href="https://chemins.be/erquennes/sentier/27"/><trkseg>
<trkpt lat="50.358242" lon="3.794371"><time>2026-05-02T23:27:51Z</time></trkpt>
<trkpt lat="50.357637" lon="3.794797"><time>2026-05-02T23:37:51Z</time></trkpt>
<trkpt lat="50.357461" lon="3.795637"><time>2026-05-02T23:47:51Z</time></trkpt>
</trkseg></trk>
<trk>
<name>hhoeq27</name>
<cmt>b</cmt>
<desc>Erquennes Sentier n°27 </desc>
<link href="https://chemins.be/erquennes/sentier/27"/><trkseg>
<trkpt lat="50.357461" lon="3.795637"><time>2026-05-02T23:47:51Z</time></trkpt>
<trkpt lat="50.357122" lon="3.796753"><time>2026-05-02T23:57:51Z</time></trkpt>
<trkpt lat="50.356291" lon="3.799489"><time>2026-05-03T00:07:51Z</time></trkpt>
<trkpt lat="50.356659" lon="3.800838"><time>2026-05-03T00:17:51Z</time></trkpt>
</trkseg></trk>
<trk>
<name>hhoeq27</name>
<cmt>d</cmt>
<desc>Erquennes Sentier n°27 </desc>
<link href="https://chemins.be/erquennes/sentier/27"/><trkseg>
<trkpt lat="50.356659" lon="3.800838"><time>2026-05-03T00:17:51Z</time></trkpt>
<trkpt lat="50.356730" lon="3.801176"><time>2026-05-03T00:27:51Z</time></trkpt>
<trkpt lat="50.355627" lon="3.805438"><time>2026-05-03T00:37:51Z</time></trkpt>
<trkpt lat="50.355491" lon="3.806217"><time>2026-05-03T00:47:51Z</time></trkpt>
<trkpt lat="50.354542" lon="3.810323"><time>2026-05-03T00:57:51Z</time></trkpt>
<trkpt lat="50.353299" lon="3.813826"><time>2026-05-03T01:07:51Z</time></trkpt>
</trkseg>
</trk>
<trk>
<name>hhoeq28</name>
<cmt>q</cmt>
<desc>Erquennes Sentier n°28 </desc>
<link href="https://chemins.be/erquennes/sentier/28"/><trkseg>
<trkpt lat="50.356847" lon="3.827684"><time>2026-05-02T23:07:51Z</time></trkpt>
<trkpt lat="50.354958" lon="3.828903"><time>2026-05-02T23:17:51Z</time></trkpt>
<trkpt lat="50.354383" lon="3.834653"><time>2026-05-02T23:27:51Z</time></trkpt>
<trkpt lat="50.354476" lon="3.834731"><time>2026-05-02T23:37:51Z</time></trkpt>
<trkpt lat="50.354482" lon="3.835494"><time>2026-05-02T23:47:51Z</time></trkpt>
<trkpt lat="50.355117" lon="3.838499"><time>2026-05-02T23:57:51Z</time></trkpt>
</trkseg>
</trk>
<trk>
<name>hhoeq29</name>
<cmt>q</cmt>
<desc>Erquennes Sentier n°29 </desc>
<link href="https://chemins.be/erquennes/sentier/29"/><trkseg>
<trkpt lat="50.356295" lon="3.820165"><time>2026-05-02T23:07:51Z</time></trkpt>
<trkpt lat="50.355633" lon="3.819410"><time>2026-05-02T23:17:51Z</time></trkpt>
<trkpt lat="50.355578" lon="3.818826"><time>2026-05-02T23:27:51Z</time></trkpt>
<trkpt lat="50.355009" lon="3.818646"><time>2026-05-02T23:37:51Z</time></trkpt>
<trkpt lat="50.353822" lon="3.816504"><time>2026-05-02T23:47:51Z</time></trkpt>
<trkpt lat="50.353231" lon="3.816178"><time>2026-05-02T23:57:51Z</time></trkpt>
<trkpt lat="50.351993" lon="3.816796"><time>2026-05-03T00:07:51Z</time></trkpt>
<trkpt lat="50.350547" lon="3.816401"><time>2026-05-03T00:17:51Z</time></trkpt>
<trkpt lat="50.347962" lon="3.817792"><time>2026-05-03T00:27:51Z</time></trkpt>
<trkpt lat="50.347710" lon="3.819079"><time>2026-05-03T00:37:51Z</time></trkpt>
<trkpt lat="50.346987" lon="3.818925"><time>2026-05-03T00:47:51Z</time></trkpt>
<trkpt lat="50.345848" lon="3.820367"><time>2026-05-03T00:57:51Z</time></trkpt>
</trkseg>
</trk>
<trk>
<name>hhoeq30</name>
<cmt>q</cmt>
<desc>Erquennes Sentier n°30 </desc>
<link href="https://chemins.be/erquennes/sentier/30"/><trkseg>
<trkpt lat="50.352160" lon="3.824216"><time>2026-05-02T23:07:51Z</time></trkpt>
<trkpt lat="50.352215" lon="3.821822"><time>2026-05-02T23:17:51Z</time></trkpt>
<trkpt lat="50.350566" lon="3.817942"><time>2026-05-02T23:27:51Z</time></trkpt>
<trkpt lat="50.350462" lon="3.814964"><time>2026-05-02T23:37:51Z</time></trkpt>
</trkseg>
</trk>
<trk>
<name>hhoeq31</name>
<cmt>d</cmt>
<desc>Erquennes Sentier n°31 </desc>
<link href="https://chemins.be/erquennes/sentier/31"/><trkseg>
<trkpt lat="50.356618" lon="3.812833"><time>2026-05-02T23:07:51Z</time></trkpt>
<trkpt lat="50.353930" lon="3.812068"><time>2026-05-02T23:17:51Z</time></trkpt>
</trkseg>
</trk>
<trk>
<name>hhoeq32</name>
<cmt>v</cmt>
<desc>Erquennes Sentier n°32 </desc>
<link href="https://chemins.be/erquennes/sentier/32"/><trkseg>
<trkpt lat="50.357689" lon="3.793080"><time>2026-05-02T23:07:51Z</time></trkpt>
<trkpt lat="50.357817" lon="3.793514"><time>2026-05-02T23:17:51Z</time></trkpt>
<trkpt lat="50.358216" lon="3.794324"><time>2026-05-02T23:27:51Z</time></trkpt>
<trkpt lat="50.358878" lon="3.795468"><time>2026-05-02T23:37:51Z</time></trkpt>
<trkpt lat="50.359302" lon="3.795716"><time>2026-05-02T23:47:51Z</time></trkpt>
</trkseg>
</trk>
<trk>
<name>hhoeq33</name>
<cmt>d</cmt>
<desc>Erquennes Sentier n°33 </desc>
<link href="https://chemins.be/erquennes/sentier/33"/><trkseg>
<trkpt lat="50.356155" lon="3.793692"><time>2026-05-02T23:07:51Z</time></trkpt>
<trkpt lat="50.356709" lon="3.794332"><time>2026-05-02T23:17:51Z</time></trkpt>
<trkpt lat="50.357447" lon="3.794611"><time>2026-05-02T23:27:51Z</time></trkpt>
<trkpt lat="50.357640" lon="3.794799"><time>2026-05-02T23:37:51Z</time></trkpt>
</trkseg>
</trk>
<trk>
<name>hhoeq34</name>
<cmt>b</cmt>
<desc>Erquennes Sentier n°34 </desc>
<link href="https://chemins.be/erquennes/sentier/34"/><trkseg>
<trkpt lat="50.358700" lon="3.794272"><time>2026-05-02T23:07:51Z</time></trkpt>
<trkpt lat="50.358741" lon="3.795231"><time>2026-05-02T23:17:51Z</time></trkpt>
<trkpt lat="50.358779" lon="3.796122"><time>2026-05-02T23:27:51Z</time></trkpt>
<trkpt lat="50.359166" lon="3.796785"><time>2026-05-02T23:37:51Z</time></trkpt>
</trkseg>
</trk>
<trk>
<name>hhoeq35</name>
<cmt>v</cmt>
<desc>Erquennes Sentier n°35 </desc>
<link href="https://chemins.be/erquennes/sentier/35"/><trkseg>
<trkpt lat="50.355625" lon="3.794148"><time>2026-05-02T23:07:51Z</time></trkpt>
<trkpt lat="50.356026" lon="3.794459"><time>2026-05-02T23:17:51Z</time></trkpt>
</trkseg></trk>
<trk>
<name>hhoeq35</name>
<cmt>d</cmt>
<desc>Erquennes Sentier n°35 </desc>
<link href="https://chemins.be/erquennes/sentier/35"/><trkseg>
<trkpt lat="50.356026" lon="3.794459"><time>2026-05-02T23:17:51Z</time></trkpt>
<trkpt lat="50.356269" lon="3.794647"><time>2026-05-02T23:27:51Z</time></trkpt>
<trkpt lat="50.356758" lon="3.795967"><time>2026-05-02T23:37:51Z</time></trkpt>
</trkseg>
</trk>
<trk>
<name>hhoeq36</name>
<cmt>q</cmt>
<desc>Erquennes Sentier n°36 Rue des Leuses</desc>
<link href="https://chemins.be/erquennes/sentier/36"/><trkseg>
<trkpt lat="50.362198" lon="3.801945"><time>2026-05-02T23:07:51Z</time></trkpt>
<trkpt lat="50.361835" lon="3.801270"><time>2026-05-02T23:17:51Z</time></trkpt>
<trkpt lat="50.361520" lon="3.800347"><time>2026-05-02T23:27:51Z</time></trkpt>
</trkseg>
</trk>
<trk>
<name>hhoeq37</name>
<cmt>q</cmt>
<desc>Erquennes Sentier n°37 Rue du Vert Pignon</desc>
<link href="https://chemins.be/erquennes/sentier/37"/><trkseg>
<trkpt lat="50.358052" lon="3.804012"><time>2026-05-02T23:07:51Z</time></trkpt>
<trkpt lat="50.358147" lon="3.803915"><time>2026-05-02T23:17:51Z</time></trkpt>
<trkpt lat="50.358216" lon="3.801430"><time>2026-05-02T23:27:51Z</time></trkpt>
<trkpt lat="50.358131" lon="3.801133"><time>2026-05-02T23:37:51Z</time></trkpt>
</trkseg>
</trk>
<trk>
<name>hhoeq38</name>
<cmt>q</cmt>
<desc>Erquennes Sentier n°38 </desc>
<link href="https://chemins.be/erquennes/sentier/38"/><trkseg>
<trkpt lat="50.350203" lon="3.824814"><time>2026-05-02T23:07:51Z</time></trkpt>
<trkpt lat="50.350020" lon="3.824635"><time>2026-05-02T23:17:51Z</time></trkpt>
<trkpt lat="50.349390" lon="3.824543"><time>2026-05-02T23:27:51Z</time></trkpt>
<trkpt lat="50.349244" lon="3.824582"><time>2026-05-02T23:37:51Z</time></trkpt>
</trkseg>
</trk>
<trk>
<name>hhoeq5</name>
<cmt>v</cmt>
<desc>Erquennes Chemin n°5 Rue des Leuses</desc>
<link href="https://chemins.be/erquennes/chemin/5"/><trkseg>
<trkpt lat="50.360221" lon="3.797669"><time>2026-05-02T23:07:51Z</time></trkpt>
<trkpt lat="50.360405" lon="3.797984"><time>2026-05-02T23:17:51Z</time></trkpt>
<trkpt lat="50.360602" lon="3.798346"><time>2026-05-02T23:27:51Z</time></trkpt>
<trkpt lat="50.360923" lon="3.798985"><time>2026-05-02T23:37:51Z</time></trkpt>
<trkpt lat="50.361163" lon="3.799471"><time>2026-05-02T23:47:51Z</time></trkpt>
<trkpt lat="50.361346" lon="3.799921"><time>2026-05-02T23:57:51Z</time></trkpt>
<trkpt lat="50.361459" lon="3.800298"><time>2026-05-03T00:07:51Z</time></trkpt>
<trkpt lat="50.361522" lon="3.800511"><time>2026-05-03T00:17:51Z</time></trkpt>
<trkpt lat="50.361742" lon="3.801159"><time>2026-05-03T00:27:51Z</time></trkpt>
<trkpt lat="50.361835" lon="3.801403"><time>2026-05-03T00:37:51Z</time></trkpt>
<trkpt lat="50.361938" lon="3.801628"><time>2026-05-03T00:47:51Z</time></trkpt>
<trkpt lat="50.362046" lon="3.801830"><time>2026-05-03T00:57:51Z</time></trkpt>
<trkpt lat="50.362242" lon="3.802107"><time>2026-05-03T01:07:51Z</time></trkpt>
<trkpt lat="50.362930" lon="3.803113"><time>2026-05-03T01:17:51Z</time></trkpt>
<trkpt lat="50.363017" lon="3.803279"><time>2026-05-03T01:27:51Z</time></trkpt>
<trkpt lat="50.363096" lon="3.803463"><time>2026-05-03T01:37:51Z</time></trkpt>
<trkpt lat="50.363143" lon="3.803641"><time>2026-05-03T01:47:51Z</time></trkpt>
<trkpt lat="50.363180" lon="3.803814"><time>2026-05-03T01:57:51Z</time></trkpt>
<trkpt lat="50.363205" lon="3.803984"><time>2026-05-03T02:07:51Z</time></trkpt>
<trkpt lat="50.363229" lon="3.804122"><time>2026-05-03T02:17:51Z</time></trkpt>
</trkseg>
</trk>
<trk>
<name>hhoeq6</name>
<cmt>v</cmt>
<desc>Erquennes Chemin n°6 Rue de la Planche Lepêtre / Rue Maxime Ansiau</desc>
<link href="https://chemins.be/erquennes/chemin/6"/><trkseg>
<trkpt lat="50.356528" lon="3.823054"><time>2026-05-02T23:07:51Z</time></trkpt>
<trkpt lat="50.356364" lon="3.823720"><time>2026-05-02T23:17:51Z</time></trkpt>
<trkpt lat="50.355081" lon="3.824177"><time>2026-05-02T23:27:51Z</time></trkpt>
<trkpt lat="50.354173" lon="3.824106"><time>2026-05-02T23:37:51Z</time></trkpt>
<trkpt lat="50.353420" lon="3.824328"><time>2026-05-02T23:47:51Z</time></trkpt>
<trkpt lat="50.352097" lon="3.823982"><time>2026-05-02T23:57:51Z</time></trkpt>
<trkpt lat="50.350403" lon="3.824921"><time>2026-05-03T00:07:51Z</time></trkpt>
<trkpt lat="50.348140" lon="3.824278"><time>2026-05-03T00:17:51Z</time></trkpt>
<trkpt lat="50.346857" lon="3.823181"><time>2026-05-03T00:27:51Z</time></trkpt>
<trkpt lat="50.345707" lon="3.821880"><time>2026-05-03T00:37:51Z</time></trkpt>
</trkseg>
</trk>
<trk>
<name>hhoeq8</name>
<cmt>v</cmt>
<desc>Erquennes Chemin n°8 Chemin du Touquet</desc>
<link href="https://chemins.be/erquennes/chemin/8"/><trkseg>
<trkpt lat="50.354475" lon="3.797742"><time>2026-05-02T23:07:51Z</time></trkpt>
<trkpt lat="50.353775" lon="3.799774"><time>2026-05-02T23:17:51Z</time></trkpt>
<trkpt lat="50.352850" lon="3.801963"><time>2026-05-02T23:27:51Z</time></trkpt>
<trkpt lat="50.352387" lon="3.802826"><time>2026-05-02T23:37:51Z</time></trkpt>
</trkseg>
</trk>
<trk>
<name>hhoeq9</name>
<cmt>v</cmt>
<desc>Erquennes Chemin n°9 </desc>
<link href="https://chemins.be/erquennes/chemin/9"/><trkseg>
<trkpt lat="50.353837" lon="3.792150"><time>2026-05-02T23:07:51Z</time></trkpt>
<trkpt lat="50.352478" lon="3.791652"><time>2026-05-02T23:17:51Z</time></trkpt>
</trkseg>
</trk>
<trk>
<name>hhoeqi1</name>
<cmt>q</cmt>
<desc>Erquennes Chemin n°i1 </desc>
<link href="https://chemins.be/erquennes/chemin/i1"/><trkseg>
<trkpt lat="50.357982" lon="3.792555"><time>2026-05-02T23:07:51Z</time></trkpt>
<trkpt lat="50.357925" lon="3.792419"><time>2026-05-02T23:17:51Z</time></trkpt>
<trkpt lat="50.357869" lon="3.792339"><time>2026-05-02T23:27:51Z</time></trkpt>
<trkpt lat="50.357806" lon="3.792280"><time>2026-05-02T23:37:51Z</time></trkpt>
<trkpt lat="50.357706" lon="3.792215"><time>2026-05-02T23:47:51Z</time></trkpt>
<trkpt lat="50.357616" lon="3.792143"><time>2026-05-02T23:57:51Z</time></trkpt>
<trkpt lat="50.357557" lon="3.792097"><time>2026-05-03T00:07:51Z</time></trkpt>
<trkpt lat="50.357496" lon="3.792092"><time>2026-05-03T00:17:51Z</time></trkpt>
<trkpt lat="50.357410" lon="3.792103"><time>2026-05-03T00:27:51Z</time></trkpt>
<trkpt lat="50.357350" lon="3.792092"><time>2026-05-03T00:37:51Z</time></trkpt>
<trkpt lat="50.357256" lon="3.792019"><time>2026-05-03T00:47:51Z</time></trkpt>
<trkpt lat="50.357077" lon="3.791808"><time>2026-05-03T00:57:51Z</time></trkpt>
<trkpt lat="50.356883" lon="3.791590"><time>2026-05-03T01:07:51Z</time></trkpt>
<trkpt lat="50.356596" lon="3.791268"><time>2026-05-03T01:17:51Z</time></trkpt>
<trkpt lat="50.356283" lon="3.790881"><time>2026-05-03T01:27:51Z</time></trkpt>
</trkseg>
</trk>
<trk>
<name>hhoeqi2</name>
<cmt>q</cmt>
<desc>Erquennes Chemin n°i2 </desc>
<link href="https://chemins.be/erquennes/chemin/i2"/><trkseg>
<trkpt lat="50.356880" lon="3.784404"><time>2026-05-02T23:07:51Z</time></trkpt>
<trkpt lat="50.356108" lon="3.785889"><time>2026-05-02T23:17:51Z</time></trkpt>
</trkseg>
</trk>
</gpx>